Wind_Speed
4 4 5 4 3 2 3 4 4 4 3 3 2 2 2 2 1 1 1 1 1 1 1 1 2 2 2 2 2 2 2 2 3 3 3 3 3 3 3 3 3 3 2
5 5 5 5 4 3 3 4 3 3 3 3 2 2 2 2 1 1 1 0 0 0 1 2 2 2 2 2 2 1 2 2 3 3 3 3 3 3 3 3 3 4 3
6 6 6 6 6 5 4 4 5 4 4 3 3 3 2 2 2 2 2 2 1 1 2 2 2 2 2 3 2 2 2 3 3 3 4 4 4 4 4 4 5 5 5
8 8 8 7 7 6 6 5 6 6 6 5 4 4 4 3 3 2 2 3 2 2 2 3 2 3 3 3 3 3 3 4 4 4 4 4 4 4 5 5 5 5 6
9 9 8 8 8 8 7 7 7 7 7 7 6 6 5 4 4 3 4 4 4 3 3 3 4 4 4 4 4 4 4 4 5 5 5 5 5 5 5 6 6 6 6
10 10 10 10 10 10 9 8 8 8 8 8 8 7 7 6 6 5 5 5 5 5 5 5 5 5 5 5 5 5 5 5 6 6 6 6 6 7 7 7 7 7 7
11 11 11 11 11 11 11 10 9 9 9 9 9 9 9 8 7 7 7 6 7 7 7 7 7 6 7 7 7 7 7 7 7 7 7 7 8 8 8 8 9 9 9
11 11 12 11 11 12 12 11 11 11 11 11 10 10 10 10 10 9 9 9 8 8 9 9 9 9 9 9 9 9 9 9 9 9 9 9 9 10 10 10 10 10 10
12 12 12 12 12 12 12 13 13 12 12 12 12 12 12 12 12 11 11 11 10 10 11 11 11 11 11 11 12 11 11 12 12 12 12 12 12 12 12 12 12 12 13
12 11 12 13 13 12 12 14 14 14 14 14 13 13 13 13 13 13 13 13 13 13 13 13 13 13 13 14 14 14 14 14 14 14 14 15 14 14 15 15 15 15 16
13 13 13 13 13 13 13 14 15 16 15 15 15 15 15 15 16 16 16 15 15 15 15 15 15 16 16 16 16 17 17 17 17 17 17 17 17 17 17 18 18 19 19
13 14 14 14 14 14 14 15 15 16 17 17 18 17 17 17 18 18 18 18 18 18 18 18 18 18 19 19 19 19 19 19 19 19 19 19 20 20 20 20 21 21 21
13 13 14 14 15 15 15 16 17 18 18 18 19 19 19 19 20 20 20 20 20 20 20 20 20 20 21 21 22 22 21 21 22 21 21 22 22 22 23 23 24 24 24
12 13 13 14 14 15 16 17 17 18 19 19 19 20 21 21 22 22 22 22 22 23 23 23 23 23 22 23 23 22 22 23 23 24 24 24 25 26 26 26 26 27 27
12 12 12 13 14 15 16 17 18 19 19 20 20 21 21 22 23 23 23 23 24 24 25 25 25 24 24 24 24 24 25 25 26 26 26 27 28 28 28 29 29 29 30
12 12 13 14 14 15 16 17 18 19 19 20 20 21 22 22 23 23 24 24 24 25 25 25 26 26 26 26 26 26 27 27 27 28 28 29 29 30 31 31 32 32 33
13 13 13 13 14 15 16 17 19 20 20 20 21 21 21 21 22 24 25 25 25 25 25 26 27 27 28 28 28 28 28 28 29 29 30 31 31 31 32 33 34 34 35
12 13 13 13 14 15 16 17 19 20 21 20 21 21 22 22 23 23 24 24 24 25 26 26 27 28 29 29 29 30 30 30 30 31 31 32 32 32 33 34 35 36 37
12 13 13 14 14 15 16 17 18 18 19 19 20 21 22 22 22 23 23 24 25 25 26 27 28 29 29 30 31 31 31 32 32 32 33 34 34 35 36 37 37 38 39
13 14 14 15 15 15 16 16 16 17 18 19 20 21 21 21 21 22 23 24 24 25 26 27 28 30 30 30 31 31 32 33 34 34 35 35 36 36 37 38 37 37 38
14 15 15 14 15 15 16 16 16 17 17 18 19 20 21 21 22 23 23 24 25 26 27 28 29 30 31 31 32 33 34 34 35 35 36 36 36 37 37 37 37 38 39
14 14 15 15 15 16 16 17 17 17 18 18 19 19 20 20 21 23 23 24 25 26 27 29 30 31 32 32 33 33 34 35 36 36 36 36 37 37 37 37 37 38 38
15 16 16 16 16 16 17 17 17 18 19 19 19 19 20 20 21 22 23 24 25 26 28 30 31 31 32 33 33 33 34 35 36 37 37 37 38 37 38 38 38 39 40
14 14 15 15 16 16 16 16 17 18 18 18 19 19 20 20 21 22 23 24 25 27 28 30 31 32 33 33 33 34 34 35 36 37 37 38 38 39 38 38 38 39 39
14 14 15 15 16 16 16 16 17 16 17 18 19 20 20 21 21 23 25 26 27 28 29 30 30 31 32 32 33 33 33 34 34 34 35 35 36 37 37 38 38 37 37
15 16 16 17 17 17 17 18 17 17 18 19 19 20 21 21 22 24 25 26 26 27 28 29 30 31 31 30 31 32 33 33 34 34 34 35 35 35 36 37 37 38 38
Wind_Direction
214 211 209 204 197 193 187 181 182 183 187 186 181 183 181 171 156 152 134 106 99 67 9 354 358 353 341 324 304 279 275 280 290 295 292 283 277 271 265 253 244 239 245
225 226 222 218 214 206 201 201 199 200 207 210 207 197 203 206 206 212 210 216 30 12 349 339 347 346 349 348 342 308 281 280 287 293 294 290 280 272 272 264 257 254 254
233 231 230 228 224 219 216 217 218 219 221 224 224 219 227 229 236 243 248 249 260 283 304 311 323 328 326 335 334 316 299 288 287 287 288 287 283 275 273 270 264 261 259
238 234 231 230 228 225 224 225 230 231 231 232 231 235 241 242 246 255 256 256 270 281 291 293 303 306 309 311 312 309 303 298 287 286 285 286 285 281 279 279 272 266 263
240 233 229 228 229 229 228 230 233 236 236 235 237 241 248 252 249 255 258 262 269 278 285 283 291 297 299 298 299 300 300 299 294 290 288 288 285 281 280 280 277 272 268
246 239 233 234 237 233 234 236 235 237 237 238 241 245 249 254 252 254 257 263 269 275 278 280 281 289 293 294 294 295 294 293 293 292 289 286 283 279 278 279 279 277 275
254 248 245 241 240 239 238 240 241 240 240 240 244 247 250 253 253 254 259 264 269 273 276 276 277 281 284 287 289 288 288 287 287 286 280 280 279 278 278 279 280 278 277
257 254 251 246 246 245 242 242 243 244 245 243 246 251 252 255 254 256 262 264 268 272 273 275 275 278 281 282 281 284 284 284 284 283 279 276 274 274 276 276 278 278 277
263 258 250 247 249 248 243 243 245 245 247 246 247 251 254 257 256 259 263 267 269 270 273 275 275 277 279 280 280 279 278 279 282 279 277 277 273 273 274 274 273 274 276
262 258 252 249 250 252 248 245 245 246 248 249 250 252 256 259 261 264 267 270 270 271 272 274 275 274 276 278 279 278 278 277 278 277 275 275 275 272 272 273 273 274 275
265 259 256 254 251 252 250 248 247 248 250 250 252 254 258 260 262 264 266 269 271 272 273 274 275 275 277 277 277 277 276 276 277 276 275 276 276 274 274 274 273 274 275
267 260 259 256 254 254 254 253 254 252 252 253 255 256 259 261 263 264 266 268 270 271 272 273 274 275 278 278 277 277 276 276 276 276 274 275 276 276 275 275 274 274 274
272 267 262 255 254 256 257 256 257 256 255 256 257 259 260 262 264 265 267 268 269 271 272 273 272 274 275 277 278 276 276 276 276 277 276 276 277 276 276 275 275 275 275
275 269 265 259 259 262 261 257 258 259 258 259 259 259 262 263 264 266 267 268 269 270 272 273 274 275 276 277 277 276 275 276 276 276 275 275 275 276 275 275 275 275 275
275 272 271 268 266 266 264 260 260 259 259 260 262 263 264 265 265 266 268 270 270 271 271 272 273 275 276 278 277 277 277 276 275 275 276 276 275 276 275 274 275 275 275
276 276 275 272 271 270 268 268 266 265 265 263 263 266 266 266 265 266 269 271 272 272 271 272 273 275 278 278 278 279 279 277 276 277 278 278 277 277 277 278 276 275 276
275 277 279 277 276 276 274 272 269 267 267 265 265 266 268 268 268 269 270 272 273 272 272 271 273 276 278 278 279 280 280 279 277 278 279 280 279 278 277 277 278 277 276
282 283 283 281 281 281 280 281 278 272 270 268 267 267 268 268 269 271 272 273 274 273 273 273 274 277 278 278 279 281 280 281 280 280 281 281 281 280 279 278 278 277 277
285 282 282 282 282 281 282 283 281 279 274 272 270 270 270 268 270 271 273 274 274 275 275 274 274 276 278 279 281 283 282 283 281 280 280 280 280 280 280 279 278 278 278
287 287 285 283 281 281 283 284 281 280 278 275 271 270 272 272 271 273 274 274 275 276 277 278 278 278 280 282 284 284 284 284 283 282 282 281 281 280 281 280 279 279 278
286 287 287 287 286 284 283 285 285 283 282 280 278 274 274 273 274 276 276 277 278 279 281 281 281 281 281 282 283 284 284 285 285 284 283 283 282 282 283 282 281 280 279
285 285 286 287 290 288 286 287 286 285 284 282 283 282 281 280 279 279 279 278 281 282 283 283 283 282 283 284 284 285 285 285 285 284 285 284 284 284 283 282 281 281 280
287 287 288 289 291 291 290 288 288 285 284 284 285 285 283 282 283 284 283 283 284 284 284 286 288 286 286 285 286 287 287 286 286 285 285 286 286 286 285 284 283 282 282
291 292 292 290 292 292 292 289 290 289 286 287 289 288 286 285 285 287 287 287 287 288 288 289 290 290 289 288 289 289 290 290 288 287 287 287 288 287 287 286 285 284 284
291 293 297 298 299 298 298 299 299 293 293 293 292 291 289 287 290 291 291 291 291 291 291 292 292 292 292 291 290 291 291 291 291 289 289 289 290 289 288 288 288 288 288
292 294 297 298 299 299 300 302 303 302 299 298 297 296 296 295 295 296 295 295 294 294 294 294 294 294 293 293 292 292 293 292 292 291 291 290 291 290 290 290 291 290 289
Height
5911 5911 5911 5911 5911 5911 5912 5912 5912 5913 5913 5913 5913 5913 5914 5914 5914 5914 5913 5913 5913 5913 5912 5912 5911 5911 5910 5910 5909 5909 5909 5909 5909 5909 5909 5908 5908 5908 5908 5908 5908 5908 5908
5910 5910 5910 5911 5911 5911 5911 5912 5912 5912 5913 5913 5913 5913 5913 5913 5913 5913 5913 5913 5913 5912 5912 5911 5911 5910 5910 5910 5909 5909 5909 5909 5909 5908 5908 5908 5908 5908 5907 5907 5908 5908 5908
5909 5909 5909 5910 5910 5910 5911 5911 5911 5912 5912 5912 5913 5913 5913 5913 5913 5913 5913 5913 5912 5912 5911 5911 5911 5910 5910 5910 5909 5909 5908 5908 5908 5908 5907 5907 5907 5907 5907 5906 5907 5907 5907
5908 5908 5908 5909 5909 5909 5910 5910 5911 5911 5911 5912 5912 5912 5912 5912 5912 5912 5912 5912 5912 5911 5911 5910 5910 5910 5909 5909 5909 5908 5908 5907 5907 5907 5907 5906 5906 5906 5906 5906 5905 5906 5906
5906 5906 5907 5907 5908 5908 5909 5909 5910 5910 5910 5911 5911 5911 5911 5911 5911 5911 5911 5911 5911 5910 5910 5910 5909 5909 5909 5908 5908 5907 5907 5906 5906 5906 5906 5905 5905 5905 5905 5904 5904 5904 5904
5903 5904 5904 5905 5906 5906 5907 5908 5908 5908 5909 5909 5910 5910 5910 5910 5910 5910 5910 5910 5910 5909 5909 5909 5908 5908 5908 5907 5907 5906 5906 5905 5905 5904 5904 5904 5903 5903 5903 5903 5903 5903 5902
5901 5901 5902 5903 5903 5904 5905 5906 5906 5906 5907 5907 5908 5908 5909 5909 5909 5909 5909 5909 5908 5908 5908 5907 5907 5906 5906 5906 5905 5905 5904 5904 5903 5903 5902 5902 5902 5901 5901 5901 5901 5901 5900
5898 5899 5899 5900 5901 5901 5902 5903 5904 5905 5905 5905 5906 5906 5907 5908 5907 5907 5907 5907 5907 5906 5906 5906 5905 5905 5904 5904 5903 5903 5902 5902 5901 5901 5900 5900 5899 5899 5899 5899 5898 5898 5898
5895 5896 5897 5897 5898 5898 5899 5900 5901 5902 5903 5903 5903 5904 5905 5905 5905 5905 5905 5905 5905 5904 5904 5903 5903 5902 5902 5901 5901 5900 5900 5899 5899 5898 5897 5897 5897 5896 5896 5896 5895 5895 5894
5891 5893 5893 5894 5895 5896 5897 5897 5898 5899 5900 5900 5901 5901 5902 5902 5902 5902 5903 5902 5902 5901 5901 5901 5900 5900 5899 5898 5898 5897 5896 5896 5895 5895 5894 5894 5893 5893 5892 5892 5891 5891 5890
5889 5889 5890 5891 5892 5893 5893 5894 5895 5896 5896 5897 5897 5898 5898 5899 5899 5899 5899 5899 5898 5898 5898 5897 5897 5896 5896 5895 5894 5893 5893 5892 5892 5891 5890 5890 5889 5888 5888 5887 5887 5886 5886
5886 5886 5887 5887 5888 5889 5890 5890 5891 5892 5892 5893 5894 5894 5894 5895 5895 5895 5895 5895 5894 5894 5894 5893 5893 5892 5891 5891 5890 5889 5888 5888 5887 5887 5886 5885 5884 5884 5883 5882 5882 5881 5880
5883 5883 5883 5884 5885 5886 5886 5887 5887 5888 5888 5889 5889 5889 5890 5890 5890 5890 5891 5890 5890 5890 5889 5888 5888 5887 5887 5886 5885 5884 5884 5883 5882 5881 5881 5880 5879 5878 5878 5877 5876 5875 5875
5881 5881 5881 5881 5881 5881 5882 5883 5883 5883 5884 5884 5884 5885 5885 5885 5885 5885 5886 5885 5885 5885 5884 5883 5882 5882 5881 5881 5880 5879 5878 5878 5877 5876 5875 5874 5873 5872 5871 5871 5870 5869 5868
5878 5878 5878 5878 5877 5877 5877 5878 5879 5879 5879 5880 5880 5880 5880 5880 5880 5880 5880 5880 5880 5880 5879 5878 5877 5876 5875 5875 5874 5873 5872 5871 5870 5870 5869 5867 5866 5865 5864 5863 5862 5861 5861
5876 5875 5875 5874 5874 5874 5874 5874 5874 5874 5874 5875 5875 5875 5875 5875 5875 5875 5875 5874 5874 5874 5873 5872 5871 5870 5870 5869 5867 5867 5865 5864 5863 5862 5861 5860 5859 5857 5856 5855 5854 5853 5852
5873 5872 5872 5871 5871 5870 5870 5870 5869 5869 5869 5869 5870 5870 5869 5869 5869 5869 5869 5868 5868 5867 5867 5866 5865 5864 5863 5862 5861 5860 5858 5857 5856 5855 5854 5852 5850 5849 5848 5846 5845 5844 5843
5870 5869 5869 5868 5867 5867 5866 5865 5865 5864 5864 5864 5864 5864 5864 5863 5863 5863 5862 5862 5861 5860 5860 5859 5858 5857 5856 5855 5854 5852 5851 5849 5848 5847 5845 5844 5842 5840 5839 5837 5836 5834 5833
5867 5866 5865 5865 5864 5863 5862 5861 5860 5860 5859 5859 5858 5858 5858 5857 5857 5857 5856 5856 5855 5854 5853 5852 5851 5850 5849 5848 5846 5845 5843 5841 5840 5838 5837 5835 5833 5831 5829 5827 5826 5824 5822
5864 5863 5862 5861 5860 5859 5858 5857 5856 5856 5855 5854 5853 5853 5852 5851 5851 5851 5850 5850 5849 5848 5846 5845 5844 5842 5841 5840 5838 5836 5834 5833 5831 5829 5827 5825 5823 5821 5819 5816 5815 5813 5811
5861 5860 5859 5858 5857 5856 5855 5853 5852 5852 5851 5850 5848 5848 5847 5846 5845 5845 5844 5844 5842 5841 5840 5838 5836 5835 5833 5832 5830 5828 5826 5824 5822 5820 5818 5815 5813 5811 5808 5805 5803 5802 5800
5858 5857 5856 5855 5854 5852 5851 5850 5849 5848 5846 5845 5844 5843 5842 5841 5840 5839 5838 5837 5836 5834 5833 5831 5829 5827 5825 5823 5821 5819 5817 5815 5813 5810 5808 5805 5803 5800 5798 5795 5793 5791 5789
5855 5854 5853 5851 5850 5848 5847 5846 5844 5843 5842 5841 5839 5838 5837 5836 5835 5834 5832 5831 5829 5827 5826 5824 5821 5819 5817 5815 5813 5810 5808 5805 5803 5800 5798 5795 5792 5790 5787 5785 5782 5780 5778
5852 5851 5849 5848 5846 5845 5843 5842 5841 5839 5838 5836 5835 5834 5832 5831 5829 5828 5826 5824 5822 5820 5818 5816 5813 5811 5809 5806 5804 5801 5799 5796 5793 5791 5788 5785 5782 5779 5776 5774 5772 5769 5766
5849 5848 5846 5845 5843 5842 5840 5838 5837 5835 5833 5832 5830 5829 5827 5825 5824 5822 5820 5818 5816 5813 5811 5808 5805 5802 5800 5797 5795 5793 5790 5787 5784 5781 5778 5775 5772 5769 5766 5764 5761 5758 5755
5846 5845 5843 5842 5840 5838 5837 5835 5834 5832 5830 5828 5826 5824 5822 5820 5818 5816 5814 5811 5808 5806 5803 5800 5798 5795 5792 5789 5786 5784 5781 5778 5775 5772 5769 5766 5763 5759 5756 5753 5750 5747 5745